Change the Weather History Date:

Friday, September 13, 2013

  Actual Average Record
Temperature  
Mean Temperature 72 °F -  
Max Temperature 82 °F 66 °F 88 °F (2002)
Min Temperature 62 °F 48 °F 44 °F (2004)
Cooling Degree Days 6    
Growing Degree Days 22 (Base 50)    
Moisture  
Dew Point 50 °F    
Average Humidity 52    
Maximum Humidity 75    
Minimum Humidity 26    
Precipitation  
Precipitation 0.00 in - - ()
Sea Level Pressure  
Sea Level Pressure 29.84 in    
Wind  
Wind Speed 6 mph (North)    
Max Wind Speed 12 mph    
Max Gust Speed 18 mph    
Visibility 10 miles    
Events      
Averages and records for this station are not official NWS values.
T = Trace of Precipitation, MM = Missing Value Source: NWS Daily Summary

Daily Weather History Graph

Daily Weather History Graph

Search for Another Location

Airport or City:

Trip Planner

Search our weather history database for the weather conditions in past years. The results will help you decide how hot, cold, wet, or windy it might be!

Date:

Astronomy

Sep. 13, 2013 Rise Set
Actual Time 6:51 AM PDT 7:26 PM PDT
Civil Twilight 6:23 AM PDT 7:54 PM PDT
Nautical Twilight 5:49 AM PDT 8:27 PM PDT
Astronomical Twilight 5:14 AM PDT 9:02 PM PDT
Moon 3:26 PM PDT (9/13) 12:20 AM PDT (9/13)
Length of Visible Light 13h 31m
Length of Day
12h 34m
Waxing Gibbous, 62% of the Moon is Illuminated
Sep 13
Waxing Gibbous
Sep 19
Full
Sep 26
Last Quarter
Oct 4
New
Oct 11
First Quarter

Hourly Weather History & Observations

Time (PDT) Temp. Dew Point Humidity Pressure Visibility Wind Dir Wind Speed Gust Speed Precip Events Conditions
12:56 AM 66.0 °F 46.9 °F 50% 29.88 in 10.0 mi North 11.5 mph - N/A   Clear
1:56 AM 62.1 °F 51.1 °F 67% 29.89 in 10.0 mi North 11.5 mph - N/A   Clear
2:56 AM 62.1 °F 53.1 °F 72% 29.88 in 10.0 mi NNE 9.2 mph - N/A   Clear
3:56 AM 62.1 °F 52.0 °F 70% 29.86 in 10.0 mi NNE 4.6 mph - N/A   Clear
4:56 AM 66.0 °F 45.0 °F 47% 29.86 in 10.0 mi Calm Calm - N/A   Clear
5:56 AM 66.0 °F 46.0 °F 48% 29.87 in 10.0 mi Calm Calm - N/A   Clear
6:56 AM 66.0 °F 48.0 °F 52% 29.88 in 10.0 mi Calm Calm - N/A   Clear
7:56 AM 62.1 °F 54.0 °F 75% 29.91 in 10.0 mi North 3.5 mph - N/A   Clear
8:56 AM 66.0 °F 54.0 °F 65% 29.90 in 10.0 mi NNE 3.5 mph - N/A   Clear
9:56 AM 70.0 °F 52.0 °F 53% 29.89 in 10.0 mi Calm Calm - N/A   Clear
10:56 AM 72.0 °F 53.1 °F 51% 29.88 in 10.0 mi Calm Calm - N/A   Clear
11:56 AM 73.9 °F 55.0 °F 52% 29.87 in 10.0 mi Calm Calm - N/A   Clear
12:56 PM 75.9 °F 54.0 °F 46% 29.84 in 10.0 mi Calm Calm - N/A   Clear
1:56 PM 79.0 °F 52.0 °F 39% 29.83 in 10.0 mi Calm Calm - N/A   Clear
2:56 PM 81.0 °F 46.9 °F 30% 29.81 in 10.0 mi Variable 3.5 mph - N/A   Clear
3:56 PM 81.0 °F 43.0 °F 26% 29.79 in 10.0 mi Variable 3.5 mph - N/A   Clear
4:56 PM 79.0 °F 44.1 °F 29% 29.78 in 10.0 mi Variable 4.6 mph - N/A   Clear
5:56 PM 75.0 °F 46.0 °F 36% 29.78 in 10.0 mi Variable 3.5 mph - N/A   Clear
6:56 PM 71.1 °F 45.0 °F 39% 29.78 in 10.0 mi NNW 8.1 mph - N/A   Clear
7:56 PM 68.0 °F 45.0 °F 43% 29.80 in 10.0 mi North 9.2 mph 18.4 mph N/A   Clear
8:56 PM 66.9 °F 48.9 °F 52% 29.80 in 10.0 mi North 11.5 mph - N/A   Clear
9:56 PM 64.9 °F 53.1 °F 65% 29.80 in 10.0 mi North 11.5 mph - N/A   Clear
10:56 PM 63.0 °F 54.0 °F 72% 29.79 in 10.0 mi North 11.5 mph - N/A   Clear
11:56 PM 64.9 °F 53.1 °F 65% 29.79 in 10.0 mi NNE 10.4 mph - N/A   Clear